• In Portugal
  • List of Countries
  • For 7 days
  • Water Temperature
  • Satellite Maps
  • Weather Map
  • Weather Widgets
  • user-avatar
    Login

    Hourly Weather Gaborone

    Today, 19 February, Monday

    Time Temperature Precipitation Wind Pressure Humidity
    00:00 +23°C° 1.5 mm 2 mps 675 mmHg 81%
    01:00 +23°C° 1.5 mm 1 mps 675 mmHg 84%
    02:00 +21°C° 0 mm 2 mps 675 mmHg 86%
    03:00 +21°C° 0.3 mm 2 mps 675 mmHg 87%
    04:00 +21°C° 0.3 mm 2 mps 675 mmHg 88%
    05:00 +22°C° 0.3 mm 1 mps 675 mmHg 89%
    06:00 +21°C° 0 mm 2 mps 675 mmHg 85%
    07:00 +23°C° 0 mm 2 mps 676 mmHg 81%
    08:00 +24°C° 0 mm 2 mps 676 mmHg 77%
    09:00 +26°C° 0.1 mm 2 mps 677 mmHg 69%
    10:00 +28°C° 0.1 mm 3 mps 677 mmHg 62%
    11:00 +29°C° 0.1 mm 3 mps 677 mmHg 54%
    12:00 +30°C° 0.7 mm 3 mps 677 mmHg 52%
    13:00 +30°C° 0.7 mm 3 mps 676 mmHg 51%
    14:00 +31°C° 0.7 mm 3 mps 676 mmHg 49%
    15:00 +31°C° 0.6 mm 3 mps 676 mmHg 49%
    16:00 +31°C° 0.6 mm 3 mps 676 mmHg 48%
    17:00 +31°C° 0.6 mm 3 mps 675 mmHg 47%
    18:00 +30°C° 0 mm 2 mps 675 mmHg 52%
    19:00 +28°C° 0 mm 2 mps 675 mmHg 56%
    20:00 +27°C° 0 mm 2 mps 676 mmHg 61%
    21:00 +26°C° 0.3 mm 2 mps 676 mmHg 64%
    22:00 +25°C° 0.3 mm 1 mps 676 mmHg 68%
    23:00 +25°C° 0.3 mm 1 mps 676 mmHg 71%

    Tomorrow, 20 February, Tuesday

    Time Temperature Precipitation Wind Pressure Humidity
    00:00 +24°C° 0 mm 1 mps 676 mmHg 72%
    01:00 +24°C° 0 mm 1 mps 675 mmHg 73%
    02:00 +24°C° 0 mm 1 mps 675 mmHg 74%
    03:00 +23°C° 0 mm 1 mps 675 mmHg 75%
    04:00 +23°C° 0 mm 1 mps 675 mmHg 75%
    05:00 +23°C° 0 mm 1 mps 675 mmHg 76%
    06:00 +24°C° 0 mm 1 mps 675 mmHg 71%
    07:00 +25°C° 0 mm 2 mps 676 mmHg 66%
    08:00 +26°C° 0 mm 2 mps 677 mmHg 62%
    09:00 +28°C° 0 mm 3 mps 677 mmHg 54%
    10:00 +30°C° 0 mm 3 mps 677 mmHg 46%
    11:00 +33°C° 0 mm 3 mps 677 mmHg 38%
    12:00 +34°C° 0 mm 3 mps 677 mmHg 37%
    13:00 +35°C° 0 mm 3 mps 676 mmHg 35%
    14:00 +35°C° 0 mm 3 mps 676 mmHg 33%
    15:00 +35°C° 0 mm 2 mps 675 mmHg 35%
    16:00 +34°C° 0 mm 2 mps 675 mmHg 36%
    17:00 +34°C° 0 mm 2 mps 675 mmHg 38%
    18:00 +31°C° 0.3 mm 2 mps 675 mmHg 44%
    19:00 +30°C° 0.3 mm 2 mps 675 mmHg 49%
    20:00 +28°C° 0.3 mm 2 mps 675 mmHg 55%
    21:00 +27°C° 1.8 mm 2 mps 675 mmHg 64%
    22:00 +26°C° 1.8 mm 2 mps 675 mmHg 72%
    23:00 +24°C° 1.8 mm 2 mps 675 mmHg 81%

    Day after tomorrow, 21 February, Wednesday

    Time Temperature Precipitation Wind Pressure Humidity
    00:00 +24°C° 0.2 mm 2 mps 675 mmHg 81%
    01:00 +24°C° 0.2 mm 2 mps 675 mmHg 81%
    02:00 +24°C° 0.2 mm 1 mps 674 mmHg 81%
    03:00 +24°C° 0.2 mm 2 mps 674 mmHg 82%
    04:00 +24°C° 0.2 mm 2 mps 674 mmHg 82%
    05:00 +24°C° 0.2 mm 2 mps 674 mmHg 83%
    06:00 +24°C° 0 mm 2 mps 675 mmHg 81%
    07:00 +24°C° 0 mm 2 mps 675 mmHg 79%
    08:00 +25°C° 0 mm 3 mps 676 mmHg 77%
    09:00 +26°C° 0 mm 3 mps 676 mmHg 70%
    10:00 +27°C° 0 mm 3 mps 676 mmHg 64%
    11:00 +29°C° 0 mm 3 mps 676 mmHg 58%
    12:00 +29°C° 0.6 mm 4 mps 676 mmHg 58%
    13:00 +29°C° 0.6 mm 4 mps 676 mmHg 57%
    14:00 +29°C° 0.6 mm 4 mps 675 mmHg 57%
    15:00 +28°C° 1.4 mm 4 mps 675 mmHg 63%
    16:00 +27°C° 1.4 mm 4 mps 675 mmHg 68%
    17:00 +26°C° 1.4 mm 4 mps 674 mmHg 74%
    18:00 +25°C° 0.5 mm 3 mps 674 mmHg 77%
    19:00 +24°C° 0.5 mm 3 mps 675 mmHg 81%
    20:00 +22°C° 0.5 mm 3 mps 675 mmHg 85%
    21:00 +23°C° 0.1 mm 2 mps 675 mmHg 86%
    22:00 +23°C° 0.1 mm 2 mps 675 mmHg 86%
    23:00 +21°C° 0.1 mm 2 mps 675 mmHg 87%

    22 February, Thursday

    Time Temperature Precipitation Wind Pressure Humidity
    00:00 +21°C° 0.3 mm 2 mps 675 mmHg 88%
    01:00 +21°C° 0.3 mm 2 mps 674 mmHg 89%
    02:00 +21°C° 0.3 mm 2 mps 674 mmHg 90%
    03:00 +21°C° 0.7 mm 2 mps 674 mmHg 90%
    04:00 +21°C° 0.7 mm 2 mps 674 mmHg 90%
    05:00 +20°C° 0.7 mm 2 mps 674 mmHg 90%
    06:00 +20°C° 1.6 mm 3 mps 674 mmHg 90%
    07:00 +20°C° 1.6 mm 4 mps 675 mmHg 90%
    08:00 +20°C° 1.6 mm 4 mps 675 mmHg 89%
    09:00 +20°C° 2 mm 4 mps 676 mmHg 89%
    10:00 +20°C° 2 mm 5 mps 676 mmHg 88%
    11:00 +20°C° 2 mm 5 mps 676 mmHg 87%
    12:00 +20°C° 1.7 mm 5 mps 676 mmHg 86%
    13:00 +20°C° 1.7 mm 5 mps 675 mmHg 86%
    14:00 +19°C° 1.7 mm 5 mps 675 mmHg 85%
    15:00 +19°C° 1.2 mm 5 mps 675 mmHg 86%
    16:00 +19°C° 1.2 mm 5 mps 675 mmHg 87%
    17:00 +19°C° 1.2 mm 5 mps 674 mmHg 88%
    18:00 +17°C° 0.6 mm 5 mps 674 mmHg 88%
    19:00 +17°C° 0.6 mm 5 mps 674 mmHg 89%
    20:00 +17°C° 0.6 mm 5 mps 674 mmHg 89%
    21:00 +17°C° 0.6 mm 5 mps 675 mmHg 89%
    22:00 +17°C° 0.6 mm 5 mps 675 mmHg 89%
    23:00 +17°C° 0.6 mm 5 mps 675 mmHg 89%

    23 February, Friday

    Time Temperature Precipitation Wind Pressure Humidity
    00:00 +17°C° 1.2 mm 5 mps 675 mmHg 90%
    01:00 +17°C° 1.2 mm 5 mps 674 mmHg 91%
    02:00 +17°C° 1.2 mm 5 mps 674 mmHg 92%
    03:00 +17°C° 1.3 mm 5 mps 674 mmHg 92%
    04:00 +17°C° 1.3 mm 5 mps 674 mmHg 92%
    05:00 +17°C° 1.3 mm 5 mps 674 mmHg 92%
    06:00 +17°C° 2.7 mm 5 mps 674 mmHg 92%
    07:00 +17°C° 2.7 mm 5 mps 674 mmHg 92%
    08:00 +17°C° 2.7 mm 5 mps 674 mmHg 92%
    09:00 +17°C° 3.2 mm 5 mps 674 mmHg 92%
    10:00 +18°C° 3.2 mm 4 mps 675 mmHg 92%
    11:00 +18°C° 3.2 mm 4 mps 675 mmHg 93%
    12:00 +18°C° 2.6 mm 4 mps 674 mmHg 93%
    13:00 +18°C° 2.6 mm 4 mps 674 mmHg 93%
    14:00 +18°C° 2.6 mm 4 mps 674 mmHg 93%
    15:00 +18°C° 1.4 mm 4 mps 674 mmHg 92%
    16:00 +19°C° 1.4 mm 4 mps 674 mmHg 92%
    17:00 +19°C° 1.4 mm 4 mps 674 mmHg 91%
    18:00 +18°C° 0.5 mm 3 mps 674 mmHg 92%
    19:00 +18°C° 0.5 mm 3 mps 674 mmHg 93%
    20:00 +18°C° 0.5 mm 2 mps 674 mmHg 94%
    21:00 +18°C° 0.5 mm 2 mps 674 mmHg 94%
    22:00 +18°C° 0.5 mm 2 mps 674 mmHg 95%
    23:00 +18°C° 0.5 mm 2 mps 675 mmHg 95%

    24 February, Saturday

    Time Temperature Precipitation Wind Pressure Humidity
    00:00 +18°C° 0.5 mm 2 mps 674 mmHg 95%
    01:00 +18°C° 0.5 mm 2 mps 674 mmHg 95%
    02:00 +18°C° 0.5 mm 2 mps 674 mmHg 95%
    03:00 +18°C° 0.9 mm 2 mps 674 mmHg 95%
    04:00 +19°C° 0.9 mm 2 mps 674 mmHg 95%
    05:00 +19°C° 0.9 mm 3 mps 674 mmHg 95%
    06:00 +19°C° 2.3 mm 3 mps 674 mmHg 95%
    07:00 +19°C° 2.3 mm 3 mps 674 mmHg 95%
    08:00 +19°C° 2.3 mm 3 mps 675 mmHg 95%
    09:00 +19°C° 3.1 mm 3 mps 674 mmHg 95%
    10:00 +19°C° 3.1 mm 3 mps 674 mmHg 94%
    11:00 +20°C° 3.1 mm 3 mps 674 mmHg 94%
    12:00 +20°C° 1.8 mm 3 mps 674 mmHg 94%
    13:00 +20°C° 1.8 mm 3 mps 674 mmHg 94%
    14:00 +20°C° 1.8 mm 3 mps 674 mmHg 93%
    15:00 +20°C° 1.1 mm 3 mps 674 mmHg 94%
    16:00 +20°C° 1.1 mm 3 mps 673 mmHg 94%
    17:00 +20°C° 1.1 mm 3 mps 673 mmHg 94%
    18:00 +20°C° 0.5 mm 3 mps 673 mmHg 94%
    19:00 +20°C° 0.5 mm 2 mps 673 mmHg 95%
    20:00 +19°C° 0.5 mm 2 mps 673 mmHg 96%
    21:00 +19°C° 1 mm 2 mps 673 mmHg 96%
    22:00 +19°C° 1 mm 2 mps 673 mmHg 96%
    23:00 +20°C° 1 mm 1 mps 673 mmHg 96%
    Show more